Location: Lhota
(50.0887°N, 14.0116°E)
Time: 07:36:32
(UTC+00:00)

Cosmos 1470 - Pass Details

Date: 19 May 2025
Orbit: 455 x 466 km, 82.5° (Epoch: 22 June)

Event Time Altitude Azimuth Distance (km) Brightness Sun altitude
Rises 23:04:47 0° 341° (NNW) 2,519 7.5 -19.9°
Reaches altitude 10° 23:07:02 10° 331° (NNW) 1,638 6.1 -19.9°
Maximum altitude 23:10:12 30° 268° (W) 859 3.7 -19.9°
Enters shadow 23:10:25 30° 261° (W) 864 3.7 -19.9°
